Tracking 28081 objects as of 27-Sep-2023
HD Live streaming from Space Station
objects crossing your sky now

SL-12 R/B(2)

Track SL-12 R/B(2) now!


NORAD ID: 28240
Int'l Code: 2004-015D
Perigee: 35,613.3 km
Apogee: 35,728.7 km
Inclination: 12.5 °
Period: 1,429.8 minutes
Semi major axis: 42041 km
RCS: 1.2715 m2 (large)
Launch date: April 26, 2004
Source: Commonwealth of Independent States (former USSR) (CIS)
Launch site: TYURATAM MISSILE AND SPACE COMPLEX (TTMTR)

Note: This is a ROCKET BODY
Your satellite tracking list
Your tracking list is empty




NASA's NSSDC Master Catalog

Two Line Element Set (TLE):
1 28240U 04015D   23269.54708869  .00000101  00000-0  00000-0 0  9997
2 28240  12.4575  21.3967 0013724 311.7529  66.0115  1.00711313 71391
Source of the keplerian elements: AFSPC